• în România
  • Lista ţărilor
  • Pe 7 zile
  • Temperatura apei
  • Hartă satelitară
  • Meteo pe hartă
  • Widget-uri
  • user-avatar
    Intrare

    Meteo pe oră la Yevlakh

    Astăzi, 28 Aprilie, Vineri

    Timp Temperatura Precipitaţii Vânt Presiune Umiditate
    00:00 +11°C° 0 mm 1 m/s 771 mmHg 62%
    01:00 +11°C° 0 mm 1 m/s 771 mmHg 62%
    02:00 +11°C° 0 mm 1 m/s 770 mmHg 62%
    03:00 +12°C° 0 mm 1 m/s 770 mmHg 63%
    04:00 +12°C° 0 mm 1 m/s 769 mmHg 64%
    05:00 +13°C° 0 mm 1 m/s 769 mmHg 64%
    06:00 +12°C° 0 mm 0 m/s 769 mmHg 64%
    07:00 +14°C° 0 mm 1 m/s 769 mmHg 61%
    08:00 +15°C° 0 mm 1 m/s 768 mmHg 59%
    09:00 +16°C° 0 mm 1 m/s 768 mmHg 56%
    10:00 +17°C° 0 mm 2 m/s 768 mmHg 54%
    11:00 +18°C° 0 mm 2 m/s 767 mmHg 52%
    12:00 +19°C° 0 mm 2 m/s 767 mmHg 50%
    13:00 +20°C° 0 mm 2 m/s 766 mmHg 49%
    14:00 +20°C° 0 mm 2 m/s 766 mmHg 48%
    15:00 +21°C° 0 mm 2 m/s 765 mmHg 47%
    16:00 +20°C° 0 mm 2 m/s 765 mmHg 50%
    17:00 +20°C° 0 mm 2 m/s 765 mmHg 54%
    18:00 +20°C° 0 mm 1 m/s 765 mmHg 58%
    19:00 +18°C° 0 mm 1 m/s 765 mmHg 64%
    20:00 +15°C° 0 mm 1 m/s 766 mmHg 69%
    21:00 +13°C° 0 mm 1 m/s 766 mmHg 75%
    22:00 +13°C° 0 mm 1 m/s 766 mmHg 74%
    23:00 +13°C° 0 mm 1 m/s 766 mmHg 74%

    Mâine, 29 Aprilie, Sâmbătă

    Timp Temperatura Precipitaţii Vânt Presiune Umiditate
    00:00 +13°C° 0 mm 1 m/s 765 mmHg 74%
    01:00 +12°C° 0 mm 1 m/s 765 mmHg 75%
    02:00 +12°C° 0 mm 1 m/s 765 mmHg 75%
    03:00 +12°C° 0 mm 1 m/s 765 mmHg 76%
    04:00 +13°C° 0 mm 1 m/s 764 mmHg 74%
    05:00 +14°C° 0 mm 2 m/s 764 mmHg 72%
    06:00 +14°C° 0 mm 2 m/s 764 mmHg 70%
    07:00 +16°C° 0 mm 2 m/s 764 mmHg 63%
    08:00 +19°C° 0 mm 2 m/s 763 mmHg 56%
    09:00 +21°C° 0 mm 2 m/s 763 mmHg 48%
    10:00 +23°C° 0 mm 2 m/s 763 mmHg 44%
    11:00 +24°C° 0 mm 1 m/s 762 mmHg 41%
    12:00 +26°C° 0 mm 1 m/s 762 mmHg 37%
    13:00 +26°C° 0 mm 1 m/s 761 mmHg 36%
    14:00 +27°C° 0 mm 2 m/s 761 mmHg 35%
    15:00 +27°C° 0 mm 2 m/s 761 mmHg 33%
    16:00 +26°C° 0 mm 2 m/s 761 mmHg 37%
    17:00 +25°C° 0 mm 2 m/s 761 mmHg 41%
    18:00 +24°C° 0 mm 2 m/s 761 mmHg 45%
    19:00 +21°C° 0 mm 2 m/s 761 mmHg 49%
    20:00 +20°C° 0 mm 2 m/s 762 mmHg 53%
    21:00 +18°C° 0 mm 2 m/s 762 mmHg 56%
    22:00 +17°C° 0 mm 2 m/s 762 mmHg 58%
    23:00 +16°C° 0 mm 2 m/s 762 mmHg 59%

    Poimâine, 30 Aprilie, Duminică

    Timp Temperatura Precipitaţii Vânt Presiune Umiditate
    00:00 +16°C° 0 mm 1 m/s 762 mmHg 61%
    01:00 +15°C° 0 mm 1 m/s 762 mmHg 63%
    02:00 +14°C° 0 mm 1 m/s 762 mmHg 65%
    03:00 +13°C° 0 mm 0 m/s 761 mmHg 67%
    04:00 +15°C° 0 mm 1 m/s 761 mmHg 64%
    05:00 +16°C° 0 mm 1 m/s 761 mmHg 61%
    06:00 +18°C° 0 mm 1 m/s 761 mmHg 58%
    07:00 +19°C° 0 mm 2 m/s 761 mmHg 51%
    08:00 +21°C° 0 mm 2 m/s 761 mmHg 44%
    09:00 +25°C° 0 mm 2 m/s 761 mmHg 37%
    10:00 +26°C° 0 mm 2 m/s 761 mmHg 34%
    11:00 +27°C° 0 mm 1 m/s 760 mmHg 32%
    12:00 +28°C° 0 mm 1 m/s 760 mmHg 30%
    13:00 +29°C° 0 mm 1 m/s 759 mmHg 30%
    14:00 +29°C° 0 mm 1 m/s 759 mmHg 29%
    15:00 +30°C° 0 mm 1 m/s 758 mmHg 28%
    16:00 +29°C° 0 mm 1 m/s 759 mmHg 33%
    17:00 +27°C° 0 mm 1 m/s 759 mmHg 38%
    18:00 +26°C° 0 mm 1 m/s 759 mmHg 42%
    19:00 +24°C° 0 mm 1 m/s 760 mmHg 42%
    20:00 +23°C° 0 mm 2 m/s 760 mmHg 43%
    21:00 +20°C° 0 mm 2 m/s 760 mmHg 43%
    22:00 +19°C° 0 mm 2 m/s 760 mmHg 45%
    23:00 +18°C° 0 mm 2 m/s 760 mmHg 47%

    1 Mai, Luni

    Timp Temperatura Precipitaţii Vânt Presiune Umiditate
    00:00 +18°C° 0 mm 1 m/s 760 mmHg 49%
    01:00 +18°C° 0 mm 1 m/s 760 mmHg 51%
    02:00 +16°C° 0 mm 1 m/s 760 mmHg 54%
    03:00 +16°C° 0 mm 1 m/s 760 mmHg 57%
    04:00 +18°C° 0 mm 1 m/s 760 mmHg 54%
    05:00 +18°C° 0 mm 2 m/s 760 mmHg 51%
    06:00 +19°C° 0 mm 2 m/s 760 mmHg 48%
    07:00 +21°C° 0 mm 2 m/s 760 mmHg 41%
    08:00 +24°C° 0 mm 2 m/s 760 mmHg 35%
    09:00 +27°C° 0 mm 2 m/s 760 mmHg 29%
    10:00 +28°C° 0 mm 2 m/s 760 mmHg 28%
    11:00 +29°C° 0 mm 1 m/s 760 mmHg 27%
    12:00 +30°C° 0 mm 1 m/s 759 mmHg 26%
    13:00 +31°C° 0 mm 1 m/s 759 mmHg 25%
    14:00 +31°C° 0 mm 2 m/s 759 mmHg 25%
    15:00 +31°C° 0 mm 2 m/s 758 mmHg 25%
    16:00 +30°C° 0 mm 2 m/s 759 mmHg 29%
    17:00 +29°C° 0 mm 2 m/s 759 mmHg 32%
    18:00 +28°C° 0 mm 2 m/s 759 mmHg 36%
    19:00 +26°C° 0 mm 2 m/s 760 mmHg 38%
    20:00 +24°C° 0 mm 2 m/s 760 mmHg 40%
    21:00 +21°C° 0 mm 2 m/s 761 mmHg 42%
    22:00 +20°C° 0 mm 2 m/s 760 mmHg 45%
    23:00 +19°C° 0 mm 2 m/s 760 mmHg 48%

    2 Mai, Marţi

    Timp Temperatura Precipitaţii Vânt Presiune Umiditate
    00:00 +18°C° 0 mm 2 m/s 760 mmHg 50%
    01:00 +19°C° 0 mm 1 m/s 760 mmHg 51%
    02:00 +18°C° 0 mm 1 m/s 760 mmHg 52%
    03:00 +18°C° 0 mm 1 m/s 760 mmHg 52%
    04:00 +19°C° 0 mm 1 m/s 760 mmHg 52%
    05:00 +19°C° 0 mm 1 m/s 760 mmHg 53%
    06:00 +18°C° 0 mm 0 m/s 760 mmHg 53%
    07:00 +22°C° 0 mm 1 m/s 759 mmHg 45%
    08:00 +24°C° 0 mm 1 m/s 759 mmHg 38%
    09:00 +26°C° 0 mm 1 m/s 759 mmHg 31%
    10:00 +27°C° 0 mm 2 m/s 759 mmHg 29%
    11:00 +28°C° 0 mm 3 m/s 758 mmHg 27%
    12:00 +30°C° 0 mm 4 m/s 758 mmHg 25%
    13:00 +30°C° 0 mm 4 m/s 757 mmHg 24%
    14:00 +32°C° 0 mm 4 m/s 757 mmHg 23%
    15:00 +32°C° 0 mm 4 m/s 756 mmHg 22%
    16:00 +30°C° 0 mm 3 m/s 756 mmHg 27%
    17:00 +28°C° 0 mm 3 m/s 757 mmHg 32%
    18:00 +27°C° 0 mm 2 m/s 757 mmHg 36%
    19:00 +25°C° 0,1 mm 2 m/s 757 mmHg 42%
    20:00 +23°C° 0,1 mm 2 m/s 757 mmHg 47%
    21:00 +21°C° 0,1 mm 1 m/s 758 mmHg 52%
    22:00 +20°C° 0,1 mm 1 m/s 757 mmHg 53%
    23:00 +20°C° 0,1 mm 1 m/s 757 mmHg 55%

    3 Mai, Miercuri

    Timp Temperatura Precipitaţii Vânt Presiune Umiditate
    00:00 +19°C° 0,1 mm 1 m/s 757 mmHg 57%
    01:00 +19°C° 0 mm 1 m/s 757 mmHg 57%
    02:00 +19°C° 0 mm 1 m/s 757 mmHg 57%
    03:00 +17°C° 0 mm 2 m/s 757 mmHg 56%
    04:00 +18°C° 0 mm 2 m/s 757 mmHg 55%
    05:00 +19°C° 0 mm 2 m/s 757 mmHg 53%
    06:00 +19°C° 0 mm 3 m/s 757 mmHg 52%
    07:00 +21°C° 0,1 mm 3 m/s 757 mmHg 46%
    08:00 +25°C° 0,1 mm 4 m/s 757 mmHg 41%
    09:00 +27°C° 0,1 mm 4 m/s 757 mmHg 35%
    10:00 +27°C° 0 mm 4 m/s 756 mmHg 34%
    11:00 +28°C° 0 mm 4 m/s 756 mmHg 34%
    12:00 +29°C° 0 mm 4 m/s 756 mmHg 33%
    13:00 +30°C° 0 mm 3 m/s 755 mmHg 33%
    14:00 +30°C° 0 mm 3 m/s 755 mmHg 32%
    15:00 +30°C° 0 mm 3 m/s 755 mmHg 32%
    16:00 +29°C° 0 mm 2 m/s 755 mmHg 37%
    17:00 +28°C° 0 mm 2 m/s 755 mmHg 41%
    18:00 +27°C° 0 mm 1 m/s 755 mmHg 46%
    19:00 +25°C° 0,3 mm 1 m/s 756 mmHg 50%
    20:00 +23°C° 0,3 mm 1 m/s 756 mmHg 55%
    21:00 +21°C° 0,3 mm 1 m/s 756 mmHg 60%
    22:00 +21°C° 0,1 mm 1 m/s 756 mmHg 59%
    23:00 +20°C° 0,1 mm 1 m/s 756 mmHg 57%
    Arată mai mult